Hourly Data Report for October 01, 2015

All times are specified in Local Standard Time (LST). Add 1 hour to adjust for Daylight Saving Time where and when it is observed.

CLYDE RIVER A
NUNAVUT

70°29'09.000" N
68°31'01.000" W
26.50 m
2400804
71090
YCY

Related Data

No related data is available for this station

Download Data

Hourly Data (October 2015)
Hourly Data Report for October 1, 2015
Temp Definition
°C
Dew Point Temp Definition
°C
Rel Hum Definition
%
Wind Dir Definition
10's deg

Wind Spd Definition
km/h
Visibility Definition
km
Stn Press Definition
kPa
Hmdx Definition


Wind Chill Definition


Weather Definition


TIME
00:00 Legend Double Dagger -3.9 -7.6 75 25 5 16.1 101.20   -6 LegendNANA
01:00 Legend Double Dagger -7.6 -9.4 87 31 5 16.1 101.21   -10 LegendNANA
02:00 Legend Double Dagger -5.4 -8.7 78 LegendMM 4 16.1 101.20   -7 LegendNANA
03:00 Legend Double Dagger -5.4 -8.7 78 25 8 16.1 101.20   -9 LegendNANA
04:00 Legend Double Dagger -5.0 -8.9 74 28 4 16.1 101.18   -7 LegendNANA
05:00 Legend Double Dagger -5.0 -8.4 77 25 5 16.1 101.16   -7 LegendNANA
06:00 Legend Double Dagger -3.1 -7.5 72 17 5 16.1 101.15   -5 LegendNANA
07:00 Legend Double Dagger -1.6 -5.6 74 22 39 16.1 101.12   -9 LegendNANA
08:00 Legend Double Dagger -0.9 -5.4 72 22 30 16.1 101.11   -8 LegendNANA
09:00 Legend Double Dagger -0.7 -5.2 72 22 46 16.1 100.99   -9 LegendNANA
10:00 Legend Double Dagger -0.5 -5.1 71 21 41 16.1 101.01   -8 LegendNANA
11:00 Legend Double Dagger 0.4 -4.5 70 21 32 16.1 100.95     LegendNANA
12:00 Legend Double Dagger 0.2 -4.7 70 21 24 16.1 100.98     LegendNANA
13:00 Legend Double Dagger 0.4 -4.1 72 22 55 11.3 100.86     LegendNANA
14:00 Legend Double Dagger 1.1 -3.9 70 22 59 12.9 100.68     Rain
15:00 Legend Double Dagger 1.8 -3.1 70 22 54 16.1 100.65     Rain
16:00 Legend Double Dagger 1.8 -3.3 69 21 58 16.1 100.47     Rain
17:00 Legend Double Dagger 1.4 -3.0 73 22 45 16.1 100.37     LegendNANA
18:00 Legend Double Dagger 1.8 -3.3 69 22 67 6.4 100.14     Rain
19:00 Legend Double Dagger 1.6 -2.6 74 23 55 16.1 99.96     Rain
20:00 Legend Double Dagger 2.5 -2.3 71 22 59 16.1 99.88     LegendNANA
21:00 Legend Double Dagger 3.4 -2.9 64 22 81 4.8 99.57     Haze
22:00 Legend Double Dagger 3.0 -2.7 66 21 67 16.1 99.53     LegendNANA
23:00 Legend Double Dagger 3.6 -2.1 66 21 67 16.1 99.48     LegendNANA

Notes on Data Quality.

Legend

  • E = Estimated
  • M = Missing
  • NA = Not Available
  • ‡ = Partner data that is not subject to review by the National Climate Archives
Date modified: